Regional Weather Roundup
Issued by NWS

Home | Current Version | Previous Version | Text Only | Print | Product List | Glossary Off
Versions: 1 2 3 4 5 6 7 8 9 10 11 12 13 14 15 16 17 18 19 20 21 22 23 24 25 26 27 28 29 30 31 32 33 34 35 36 37 38 39 40 41 42 43 44 45 46 47 48 49 50

594
ASUS43 KFSD 180802
RWRSD

WEATHER ROUNDUP FOR SOUTH DAKOTA
NATIONAL WEATHER SERVICE SIOUX FALLS SD
200 AM CST MON DEC 18 2017

NOTE: "FAIR" INDICATES FEW OR NO CLOUDS BELOW 12,000 FEET WITH NO
SIGNIFICANT WEATHER AND/OR OBSTRUCTIONS TO VISIBILITY.


SDZ001>005-009-010-012>017-180900-
NORTHWEST AND NORTH CENTRAL SOUTH DAKOTA

CITY           SKY/WX    TMP DP  RH WIND       PRES   REMARKS
BUFFALO          N/A     30  21  69 W13       29.69F WCI  20
FAITH            N/A     32  22  66 W16       29.77F WCI  21
MOBRIDGE       CLEAR     30  23  75 NW3       29.72F
$$

SDZ012>016-024>037-041>051-057-063-072>074-180900-
SOUTHWEST AND SOUTH CENTRAL SOUTH DAKOTA

CITY           SKY/WX    TMP DP  RH WIND       PRES   REMARKS
RAPID CTY ARPT CLOUDY    30  18  60 W5        29.83S WCI  25
PIERRE         PTCLDY    28  26  92 W9        29.79F WCI  19
CUSTER         CLOUDY    27  15  61 W16G23    29.80F WCI  15
ELLSWORTH AFB  CLOUDY    31  19  59 W10       29.81F WCI  23
PHILIP         CLOUDY    27  23  85 W10       29.83S WCI  17
PINE RIDGE     CLOUDY    28  19  69 SW7       29.89S WCI  21
SPEARFISH      FAIR      36  19  51 W17       29.79F
WINNER         FAIR      31  26  82 W10       29.83F WCI  22
$$

SDZ004>011-016>023-039-040-180900-
NORTHEAST SOUTH DAKOTA

CITY           SKY/WX    TMP DP  RH WIND       PRES   REMARKS
ABERDEEN       CLOUDY    29  28  96 SW9       29.77F WCI  20
WATERTOWN      MOCLDY    30  28  92 S8        29.78F WCI  22
BROOKINGS      CLEAR     30  26  85 S8        29.83F WCI  22
SISSETON         N/A     37  30  75 S8        29.75F
$$

SDZ017-020-022-023-036>040-048>070-180900-
SOUTHEAST SOUTH DAKOTA

CITY           SKY/WX    TMP DP  RH WIND       PRES   REMARKS
SIOUX FALLS    PTCLDY    30  26  85 SW7       29.86F WCI  23
HURON          CLEAR     29  26  89 MISG      29.80F
CHAMBERLAIN    CLEAR     31  30  96 SW3       29.81F
MITCHELL       CLEAR     31  26  82 S8        29.83F WCI  23
YANKTON        CLEAR     25  21  85 E5        29.87F WCI  19
$$

ABBREVIATIONS USED IN REMARKS
   TC - TEMPERATURE IN CELSIUS
  WCI - WIND CHILL INDEX
   HX - HEAT INDEX
  VSB - VISIBILITY





USA.gov is the U.S. government's official web portal to all federal, state and local government web resources and services.